Weather History for Owensboro, KY

Change the Weather History Date:

Saturday, November 2, 2013

  Actual Average Record
Temperature  
Mean Temperature 46 °F -  
Max Temperature 56 °F 64 °F 84 °F (1987)
Min Temperature 37 °F 43 °F 21 °F (1954)
Degree Days  
Heating Degree Days 18    
Moisture  
Dew Point 41 °F    
Average Humidity 83    
Maximum Humidity 100    
Minimum Humidity 55    
Precipitation  
Precipitation 0.00 in - - ()
Sea Level Pressure  
Sea Level Pressure 30.00 in    
Wind  
Wind Speed 4 mph (NW)    
Max Wind Speed 16 mph    
Max Gust Speed 29 mph    
Visibility 10 miles    
Events Rain    
Averages and records for this station are not official NWS values.
T = Trace of Precipitation, MM = Missing Value Source: NWS Daily Summary

Daily Weather History Graph

Daily Weather History Graph

Search for Another Location

Airport:

Trip Planner

Search our weather history database for the weather conditions in past years. The results will help you decide how hot, cold, wet, or windy it might be!

Date:

Astronomy

Nov. 02, 2013 Rise Set
Actual Time 7:15 AM CDT 5:48 PM CDT
Civil Twilight 6:47 AM CDT 6:15 PM CDT
Nautical Twilight 6:16 AM CDT 6:46 PM CDT
Astronomical Twilight 5:46 AM CDT 7:17 PM CDT
Moon 6:12 AM CDT (11/2) 5:19 PM CDT (11/2)
Length of Visible Light 11h 27m
Length of Day
10h 33m
Waning Crescent, 1% of the Moon is Illuminated
Nov 2
Waning Crescent
Nov 3
New
Nov 9
First Quarter
Nov 17
Full
Nov 25
Last Quarter

Hourly Weather History & Observations

Time (CDT) Temp. Windchill Dew Point Humidity Pressure Visibility Wind Dir Wind Speed Gust Speed Precip Events Conditions
12:56 AM 45.9 °F - 41.9 °F 86% 29.84 in 10.0 mi Calm Calm - N/A   Clear
1:56 AM 39.9 °F 37.8 °F 38.8 °F 96% 29.84 in 10.0 mi SSW 3.5 mph - N/A   Clear
2:56 AM 41.0 °F - 39.9 °F 96% 29.85 in 10.0 mi Calm Calm - N/A   Clear
3:56 AM 41.9 °F - 41.0 °F 97% 29.86 in 10.0 mi Calm Calm - N/A   Scattered Clouds
4:56 AM 39.9 °F - 38.8 °F 96% 29.87 in 10.0 mi Calm Calm - N/A   Clear
5:56 AM 38.8 °F - 38.8 °F 100% 29.89 in 10.0 mi Calm Calm - N/A   Clear
6:56 AM 37.9 °F - 37.9 °F 100% 29.90 in 10.0 mi Calm Calm - N/A   Clear
7:56 AM 39.9 °F - 39.9 °F 100% 29.92 in 10.0 mi Calm Calm - N/A   Clear
8:56 AM 46.9 °F - 45.0 °F 93% 29.94 in 10.0 mi West 6.9 mph - N/A   Scattered Clouds
9:56 AM 47.8 °F - 43.9 °F 86% 29.96 in 10.0 mi WNW 11.5 mph 18.4 mph N/A   Mostly Cloudy
10:56 AM 47.8 °F - 43.9 °F 86% 29.99 in 7.0 mi WNW 11.5 mph 18.4 mph 0.00 in Rain Light Rain
11:56 AM 50.9 °F - 45.9 °F 83% 29.99 in 10.0 mi WNW 9.2 mph - 0.00 in   Mostly Cloudy
12:56 PM 55.9 °F - 41.0 °F 57% 29.99 in 10.0 mi NW 12.7 mph - N/A   Mostly Cloudy
1:56 PM 55.9 °F - 39.9 °F 55% 29.99 in 10.0 mi WNW 10.4 mph - N/A   Mostly Cloudy
2:56 PM 56.8 °F - 43.9 °F 62% 29.99 in 10.0 mi WNW 16.1 mph - N/A   Mostly Cloudy
3:56 PM 52.9 °F - 43.0 °F 69% 30.01 in 10.0 mi NW 9.2 mph - N/A   Mostly Cloudy
4:56 PM 52.0 °F - 41.0 °F 66% 30.04 in 10.0 mi NW 16.1 mph 28.8 mph N/A   Mostly Cloudy
5:56 PM 48.9 °F - 43.9 °F 83% 30.07 in 10.0 mi NW 9.2 mph - 0.00 in   Scattered Clouds
6:56 PM 48.9 °F - 41.0 °F 74% 30.11 in 10.0 mi NW 12.7 mph - N/A   Mostly Cloudy
7:56 PM 46.9 °F - 36.9 °F 68% 30.14 in 10.0 mi NNW 10.4 mph - N/A   Mostly Cloudy
8:56 PM 45.0 °F 41.8 °F 37.9 °F 76% 30.15 in 10.0 mi North 5.8 mph - N/A   Clear
9:56 PM 39.9 °F 36.7 °F 36.9 °F 89% 30.18 in 10.0 mi WNW 4.6 mph - N/A   Clear
10:56 PM 38.8 °F - 36.9 °F 93% 30.19 in 10.0 mi Calm Calm - N/A   Clear
11:56 PM 38.8 °F - 36.9 °F 93% 30.19 in 10.0 mi Calm Calm - N/A   Clear